Location: Killam
(52.7910°N, 111.8608°W)
Time: 10:00:27
(UTC+00:00)

FENGYUN 1C DEB - Pass Details

Date: 02 June 2024
Orbit: 795 x 992 km, 98.4° (Epoch: 16 June)

Event Time Altitude Azimuth Distance (km) Brightness Sun altitude
Rises 07:38:56 0° 8° (N) 3,333 ? -14.9°
Reaches altitude 10° 07:41:42 10° 353° (N) 2,415 ? -14.9°
Maximum altitude 07:45:41 22° 305° (NW) 1,745 ? -14.8°
Drops below altitude 10° 07:49:46 10° 256° (WSW) 2,479 ? -14.8°
Enters shadow 07:52:22 - 243° (WSW) 3,338 ? -14.7°
